H-2A R/B

基本信息
目录编号:
32501
目录名称:
H-2A R/B
国际标识:
2008-007B
轨道中心:
EARTH
物体状态:
在轨
发射日期:
2008-02-23 UTC
国别:
日本 (JP)
轨道信息
数据来源: 国际轨道数据
星历时间: 2026-07-13T14:33:47+0800
半长轴: 20448.613km
偏心率: 0.6742822
轨道倾角: 28.207°
近地点辐角: 275.470°
升交点赤经: 271.862°
平近点角: 17.128°
近地点: 282.34km
远地点: 27858.612km
周期: 485.015分钟
每日圈数: 2.968978
详细信息
发射场:
TNSTA
轨道高度:
LEO
数据来源:
AOE Integration Group
参考系:
TEME
时间系统:
UTC
历元类型:
SGP4
2D轨道图
3D轨道图
轨道高度分析图
轨道倾角分析图
轨道综合分析图
查看轨道综合分析图